Location: NJAA Observatory
(40.6819°N, 74.8979°W)
Time: 14:48:02
(UTC-04:00)

Cosmos 1328 Rocket - Visible Passes

Search period start: 30 April 2016 00:00
Search period end: 10 May 2016 00:00
Orbit: 601 x 628 km, 82.5° (Epoch: 29 April)

Date Brightness Start Highest point End Pass type
(mag) Time Alt. Az. Time Alt. Az. Time Alt. Az.
30 Apr 3.5 04:35:37 10° N 04:39:58 87° E 04:44:16 10° S visible
01 May 6.4 03:15:38 10° NE 03:17:50 14° ENE 03:20:02 10° E visible
01 May 3.7 04:51:45 10° NNW 04:55:55 49° W 05:00:04 10° SSW visible
02 May 5.7 03:30:35 10° NNE 03:34:05 24° ENE 03:37:35 10° SE visible
02 May 4.5 05:08:11 10° NNW 05:11:48 26° W 05:15:24 10° SSW visible
03 May 4.6 03:46:07 10° N 03:50:15 42° ENE 03:54:20 10° SSE visible
03 May 5.2 05:25:11 10° NW 05:27:36 15° W 05:30:01 10° WSW visible
04 May 3.5 04:01:58 10° N 04:06:19 81° E 04:09:50 15° S visible
05 May 6.4 02:42:13 10° NE 02:44:09 13° ENE 02:46:05 10° E visible
05 May 3.6 04:18:04 10° NNW 04:22:17 53° W 04:25:02 20° SSW visible
06 May 5.7 02:57:01 10° NNE 03:00:25 22° ENE 03:03:18 12° ESE visible
06 May 4.5 04:34:27 10° NNW 04:38:11 29° W 04:40:19 19° SW visible
07 May 4.7 03:12:30 10° N 03:16:34 39° ENE 03:18:39 24° SE visible
07 May 5.2 04:51:20 10° NW 04:53:59 16° W 04:55:41 13° WSW visible
08 May 3.6 03:28:19 10° N 03:32:39 75° E 03:34:05 41° SSE visible
09 May 6.3 02:08:51 10° NE 02:10:28 12° ENE 02:12:05 10° E visible
09 May 3.5 03:44:24 10° NNW 03:48:38 58° W 03:49:34 46° SW visible
